IGO6104 VOBL-VAPO

Flight info

Callsign IGO6104
Flight time 1h 2m
Altitude 36000
Route VAGPU7B VAGPU Q8 AGELA W56 AVKOR
Aircraft A20N/M-SDE2E3FGHIRWXY/LB1

Departure

Time 2026-05-05 06:34
Airport Kempegowda International Airport Bengaluru (VOBL)

Arrival

Time 2026-05-05 07:37
Airport Pune International Airport (VAPO)
Time Latitude Longitude Altitude Speed Heading
2026-05-05 06:12 13.20167 77.70877 2965 ft 0 kts 180°
2026-05-05 06:18 13.20168 77.70877 3011 ft 0 kts 180°
2026-05-05 06:20 13.20178 77.70877 3011 ft 2 kts 180°
2026-05-05 06:20 13.20191 77.70877 3011 ft 2 kts 180°
2026-05-05 06:20 13.20205 77.70877 3011 ft 2 kts 179°
2026-05-05 06:21 13.20218 77.70875 3014 ft 2 kts 155°
2026-05-05 06:21 13.20231 77.70867 3013 ft 2 kts 132°
2026-05-05 06:21 13.20240 77.70855 3011 ft 2 kts 109°
2026-05-05 06:21 13.20243 77.70842 3011 ft 0 kts 89°
2026-05-05 06:23 13.20243 77.70850 3011 ft 3 kts 89°
2026-05-05 06:24 13.20243 77.70879 3011 ft 6 kts 90°
2026-05-05 06:24 13.20242 77.70929 3011 ft 7 kts 91°
2026-05-05 06:24 13.20242 77.70930 3011 ft 0 kts 91°
2026-05-05 06:25 13.20242 77.70936 3011 ft 2 kts 91°
2026-05-05 06:25 13.20242 77.70966 3011 ft 7 kts 90°
2026-05-05 06:25 13.20242 77.70982 3011 ft 0 kts 89°
2026-05-05 06:26 13.20242 77.70991 3011 ft 4 kts 91°
2026-05-05 06:27 13.20242 77.71026 3011 ft 0 kts 88°
2026-05-05 06:27 13.20242 77.71101 3010 ft 10 kts 91°
2026-05-05 06:27 13.20241 77.71175 3010 ft 10 kts 91°
2026-05-05 06:28 13.20242 77.71249 3013 ft 10 kts 75°
2026-05-05 06:28 13.20303 77.71276 3010 ft 10 kts
2026-05-05 06:28 13.20375 77.71277 3010 ft 10 kts
2026-05-05 06:28 13.20447 77.71277 3010 ft 10 kts
2026-05-05 06:29 13.20515 77.71292 3010 ft 10 kts 43°
2026-05-05 06:29 13.20524 77.71363 3010 ft 10 kts 90°
2026-05-05 06:29 13.20525 77.71437 3010 ft 10 kts 90°
2026-05-05 06:29 13.20524 77.71511 3011 ft 10 kts 91°
2026-05-05 06:30 13.20523 77.71583 3011 ft 10 kts 91°
2026-05-05 06:30 13.20522 77.71657 3011 ft 10 kts 90°
2026-05-05 06:30 13.20521 77.71731 3011 ft 10 kts 90°
2026-05-05 06:30 13.20520 77.71805 3011 ft 10 kts 90°
2026-05-05 06:31 13.20519 77.71879 3011 ft 10 kts 90°
2026-05-05 06:31 13.20519 77.71953 3011 ft 10 kts 90°
2026-05-05 06:31 13.20518 77.72027 3011 ft 10 kts 90°
2026-05-05 06:31 13.20518 77.72101 3011 ft 10 kts 90°
2026-05-05 06:32 13.20520 77.72174 3011 ft 10 kts 74°
2026-05-05 06:32 13.20579 77.72202 3011 ft 10 kts 358°
2026-05-05 06:32 13.20651 77.72201 3011 ft 10 kts 359°
2026-05-05 06:32 13.20689 77.72194 3011 ft 5 kts 323°
2026-05-05 06:33 13.20691 77.72172 3011 ft 4 kts 252°
2026-05-05 06:33 13.20690 77.72163 3011 ft 0 kts 267°
2026-05-05 06:33 13.20690 77.72153 3011 ft 8 kts 270°
2026-05-05 06:34 13.20693 77.71888 3011 ft 71 kts 271°
2026-05-05 06:34 13.20699 77.71169 3011 ft 128 kts 270°
2026-05-05 06:34 13.20707 77.70105 3096 ft 163 kts 271°
2026-05-05 06:34 13.20729 77.68929 3713 ft 167 kts 271°
2026-05-05 06:35 13.20987 77.67785 4406 ft 164 kts 302°
2026-05-05 06:35 13.21577 77.66779 5058 ft 171 kts 304°
2026-05-05 06:35 13.22236 77.65694 5406 ft 192 kts 304°
2026-05-05 06:35 13.22973 77.64474 5732 ft 212 kts 303°
2026-05-05 06:36 13.23794 77.63096 6100 ft 239 kts 303°
2026-05-05 06:36 13.24694 77.61569 6592 ft 261 kts 302°
2026-05-05 06:36 13.25663 77.59914 7127 ft 278 kts 302°
2026-05-05 06:36 13.26671 77.58185 7877 ft 285 kts 302°
2026-05-05 06:37 13.27702 77.56416 8638 ft 292 kts 303°
2026-05-05 06:37 13.28790 77.54637 9451 ft 296 kts 310°
2026-05-05 06:37 13.30342 77.53248 10173 ft 298 kts 334°
2026-05-05 06:37 13.32344 77.52584 10562 ft 313 kts 356°
2026-05-05 06:38 13.34564 77.52795 10778 ft 331 kts 19°
2026-05-05 06:38 13.36667 77.53834 11323 ft 339 kts 33°
2026-05-05 06:38 13.38653 77.55162 12082 ft 343 kts 35°
2026-05-05 06:38 13.40650 77.56528 12832 ft 347 kts 34°
2026-05-05 06:39 13.42695 77.57870 13587 ft 351 kts 33°
2026-05-05 06:39 13.44485 77.58996 14179 ft 355 kts 32°
2026-05-05 06:39 13.45929 77.59884 14537 ft 360 kts 32°
2026-05-05 06:39 13.48109 77.61205 15097 ft 367 kts 32°
2026-05-05 06:40 13.50436 77.62343 15626 ft 375 kts 17°
2026-05-05 06:40 13.53040 77.62714 16164 ft 383 kts 358°
2026-05-05 06:40 13.55670 77.62231 16714 ft 387 kts 340°
2026-05-05 06:40 13.58133 77.61098 17313 ft 390 kts 332°
2026-05-05 06:41 13.60548 77.59804 17943 ft 393 kts 330°
2026-05-05 06:41 13.62973 77.58487 18508 ft 396 kts 330°
2026-05-05 06:41 13.65436 77.57175 19018 ft 399 kts 331°
2026-05-05 06:41 13.67920 77.55881 19534 ft 402 kts 332°
2026-05-05 06:42 13.70432 77.54588 20034 ft 406 kts 332°
2026-05-05 06:42 13.72970 77.53291 20533 ft 409 kts 332°
2026-05-05 06:42 13.75529 77.51987 21032 ft 412 kts 332°
2026-05-05 06:42 13.78113 77.50669 21509 ft 416 kts 332°
2026-05-05 06:43 13.80715 77.49341 21975 ft 419 kts 332°
2026-05-05 06:43 13.83333 77.48004 22457 ft 422 kts 331°
2026-05-05 06:43 13.85976 77.46654 22925 ft 426 kts 331°
2026-05-05 06:43 13.88639 77.45294 23376 ft 429 kts 331°
2026-05-05 06:44 13.91322 77.43923 23784 ft 432 kts 331°
2026-05-05 06:44 13.94018 77.42544 24198 ft 434 kts 331°
2026-05-05 06:44 13.96700 77.41173 24592 ft 435 kts 331°
2026-05-05 06:44 13.99421 77.39781 24982 ft 437 kts 331°
2026-05-05 06:45 14.02153 77.38384 25373 ft 439 kts 331°
2026-05-05 06:45 14.04896 77.36980 25747 ft 441 kts 331°
2026-05-05 06:45 14.07660 77.35565 26117 ft 443 kts 331°
2026-05-05 06:45 14.10427 77.34148 26472 ft 445 kts 332°
2026-05-05 06:46 14.13171 77.32742 26831 ft 447 kts 332°
2026-05-05 06:46 14.15963 77.31312 27175 ft 448 kts 332°
2026-05-05 06:46 14.18763 77.29877 27512 ft 450 kts 332°
2026-05-05 06:46 14.21574 77.28436 27847 ft 452 kts 332°
2026-05-05 06:47 14.24395 77.26990 28177 ft 454 kts 332°
2026-05-05 06:47 14.27232 77.25534 28501 ft 455 kts 332°
2026-05-05 06:47 14.30077 77.24075 28817 ft 457 kts 332°
2026-05-05 06:47 14.32899 77.22627 29112 ft 459 kts 332°
2026-05-05 06:48 14.35756 77.21160 29415 ft 460 kts 332°
2026-05-05 06:48 14.38629 77.19685 29703 ft 462 kts 332°
2026-05-05 06:48 14.41506 77.18206 29994 ft 463 kts 332°
2026-05-05 06:48 14.44396 77.16722 30250 ft 465 kts 332°
2026-05-05 06:49 14.47298 77.15230 30476 ft 467 kts 332°
2026-05-05 06:49 14.50222 77.13727 30718 ft 469 kts 332°
2026-05-05 06:49 14.53145 77.12224 30964 ft 471 kts 332°
2026-05-05 06:49 14.56083 77.10712 31268 ft 471 kts 332°
2026-05-05 06:50 14.59032 77.09233 31599 ft 471 kts 335°
2026-05-05 06:50 14.62090 77.08031 31932 ft 471 kts 339°
2026-05-05 06:50 14.65180 77.06913 32263 ft 470 kts 339°
2026-05-05 06:50 14.68265 77.05789 32595 ft 469 kts 339°
2026-05-05 06:51 14.71302 77.04678 32918 ft 468 kts 339°
2026-05-05 06:51 14.74374 77.03555 33235 ft 468 kts 339°
2026-05-05 06:51 14.77442 77.02433 33546 ft 467 kts 339°
2026-05-05 06:51 14.80505 77.01313 33848 ft 466 kts 339°
2026-05-05 06:52 14.83563 77.00195 34136 ft 465 kts 339°
2026-05-05 06:52 14.86621 76.99076 34401 ft 464 kts 339°
2026-05-05 06:52 14.89629 76.97976 34652 ft 463 kts 339°
2026-05-05 06:52 14.92667 76.96864 34906 ft 463 kts 339°
2026-05-05 06:53 14.95703 76.95753 35155 ft 462 kts 339°
2026-05-05 06:53 14.98729 76.94645 35410 ft 461 kts 339°
2026-05-05 06:53 15.01755 76.93537 35671 ft 460 kts 339°
2026-05-05 06:53 15.04771 76.92432 35875 ft 460 kts 339°
2026-05-05 06:54 15.07779 76.91330 35907 ft 458 kts 339°
2026-05-05 06:54 15.13783 76.89128 35905 ft 458 kts 339°
2026-05-05 06:55 15.19799 76.86921 35906 ft 458 kts 339°
2026-05-05 06:55 15.25763 76.84732 35902 ft 457 kts 339°
2026-05-05 06:56 15.31764 76.82528 35900 ft 457 kts 339°
2026-05-05 06:56 15.37769 76.80321 35896 ft 457 kts 339°
2026-05-05 06:57 15.43768 76.78115 35894 ft 457 kts 339°
2026-05-05 06:57 15.49767 76.75908 35894 ft 457 kts 339°
2026-05-05 06:58 15.55760 76.73701 35890 ft 457 kts 339°
2026-05-05 06:58 15.61757 76.71491 35889 ft 457 kts 339°
2026-05-05 06:59 15.67547 76.68833 35893 ft 454 kts 326°
2026-05-05 06:59 15.72323 76.64671 35890 ft 452 kts 310°
2026-05-05 07:00 15.76218 76.59550 35897 ft 452 kts 307°
2026-05-05 07:00 15.80097 76.54407 35902 ft 452 kts 307°
2026-05-05 07:01 15.83979 76.49255 35904 ft 452 kts 307°
2026-05-05 07:01 15.87829 76.44135 35910 ft 453 kts 307°
2026-05-05 07:02 15.91732 76.38941 35918 ft 453 kts 307°
2026-05-05 07:02 15.95591 76.33802 35922 ft 453 kts 307°
2026-05-05 07:03 15.99466 76.28639 35922 ft 452 kts 307°
2026-05-05 07:03 16.03335 76.23479 35923 ft 452 kts 307°
2026-05-05 07:04 16.07205 76.18314 35922 ft 452 kts 307°
2026-05-05 07:04 16.11067 76.13156 35923 ft 452 kts 307°
2026-05-05 07:05 16.14904 76.08029 35926 ft 451 kts 307°
2026-05-05 07:05 16.18757 76.02876 35927 ft 451 kts 307°
2026-05-05 07:06 16.22613 75.97714 35927 ft 451 kts 307°
2026-05-05 07:06 16.26467 75.92554 35924 ft 451 kts 307°
2026-05-05 07:07 16.30317 75.87394 35925 ft 451 kts 307°
2026-05-05 07:07 16.34166 75.82232 35927 ft 451 kts 307°
2026-05-05 07:08 16.38008 75.77076 35931 ft 451 kts 307°
2026-05-05 07:08 16.41851 75.71915 35932 ft 451 kts 307°
2026-05-05 07:09 16.45694 75.66749 35933 ft 451 kts 307°
2026-05-05 07:09 16.49514 75.61612 35938 ft 451 kts 307°
2026-05-05 07:10 16.53358 75.56439 35940 ft 451 kts 307°
2026-05-05 07:10 16.57200 75.51263 35949 ft 451 kts 307°
2026-05-05 07:11 16.60425 75.46980 35936 ft 450 kts 310°
2026-05-05 07:11 16.64794 75.42306 35939 ft 450 kts 314°
2026-05-05 07:12 16.69956 75.36941 35944 ft 450 kts 314°
2026-05-05 07:12 16.73670 75.33073 35944 ft 450 kts 314°
2026-05-05 07:13 16.78101 75.28460 35941 ft 450 kts 314°
2026-05-05 07:13 16.82496 75.23881 35936 ft 449 kts 314°
2026-05-05 07:14 16.86919 75.19270 35936 ft 449 kts 314°
2026-05-05 07:14 16.91340 75.14659 35941 ft 449 kts 314°
2026-05-05 07:15 16.95754 75.10050 35940 ft 449 kts 314°
2026-05-05 07:15 17.00171 75.05435 35942 ft 449 kts 314°
2026-05-05 07:16 17.04593 75.00813 35937 ft 449 kts 314°
2026-05-05 07:16 17.09008 74.96193 35940 ft 449 kts 314°
2026-05-05 07:17 17.13386 74.91609 35935 ft 448 kts 314°
2026-05-05 07:17 17.17788 74.86998 35939 ft 448 kts 314°
2026-05-05 07:18 17.22200 74.82372 35938 ft 448 kts 314°
2026-05-05 07:18 17.26603 74.77752 35611 ft 449 kts 314°
2026-05-05 07:18 17.28811 74.75434 34943 ft 452 kts 314°
2026-05-05 07:19 17.31046 74.73086 34033 ft 459 kts 314°
2026-05-05 07:19 17.33320 74.70698 32906 ft 467 kts 314°
2026-05-05 07:19 17.35631 74.68269 31882 ft 472 kts 314°
2026-05-05 07:19 17.37922 74.65862 30985 ft 474 kts 314°
2026-05-05 07:20 17.40244 74.63421 30426 ft 468 kts 314°
2026-05-05 07:20 17.42529 74.61019 29789 ft 464 kts 314°
2026-05-05 07:20 17.44793 74.58637 29213 ft 458 kts 314°
2026-05-05 07:20 17.47024 74.56287 28620 ft 452 kts 314°
2026-05-05 07:21 17.49228 74.53966 28025 ft 447 kts 314°
2026-05-05 07:21 17.51409 74.51668 27440 ft 442 kts 314°
2026-05-05 07:21 17.53567 74.49392 26848 ft 438 kts 314°
2026-05-05 07:21 17.55711 74.47131 26270 ft 434 kts 314°
2026-05-05 07:22 17.57830 74.44895 25658 ft 431 kts 314°
2026-05-05 07:22 17.59934 74.42675 25085 ft 428 kts 314°
2026-05-05 07:22 17.62021 74.40471 24503 ft 425 kts 314°
2026-05-05 07:22 17.64094 74.38281 23940 ft 422 kts 315°
2026-05-05 07:23 17.66153 74.36105 23325 ft 419 kts 315°
2026-05-05 07:23 17.68200 74.33941 22758 ft 414 kts 315°
2026-05-05 07:23 17.70215 74.31812 22197 ft 409 kts 315°
2026-05-05 07:23 17.72178 74.29736 21636 ft 404 kts 315°
2026-05-05 07:24 17.74148 74.27652 21081 ft 400 kts 315°
2026-05-05 07:24 17.76096 74.25591 20525 ft 396 kts 315°
2026-05-05 07:24 17.78024 74.23550 19955 ft 393 kts 315°
2026-05-05 07:24 17.79946 74.21515 19419 ft 389 kts 315°
2026-05-05 07:25 17.81856 74.19492 18856 ft 387 kts 315°
2026-05-05 07:25 17.83746 74.17494 18285 ft 385 kts 316°
2026-05-05 07:25 17.85895 74.15806 17286 ft 391 kts 332°
2026-05-05 07:25 17.88468 74.14812 16326 ft 398 kts 348°
2026-05-05 07:26 17.91205 74.14471 15665 ft 395 kts 355°
2026-05-05 07:26 17.93947 74.14289 15035 ft 392 kts 356°
2026-05-05 07:26 17.96655 74.14121 14428 ft 389 kts 356°
2026-05-05 07:26 17.99348 74.13929 13824 ft 386 kts 355°
2026-05-05 07:27 18.02018 74.13714 13160 ft 384 kts 355°
2026-05-05 07:27 18.04678 74.13484 12488 ft 382 kts 355°
2026-05-05 07:27 18.07295 74.13250 11837 ft 381 kts 355°
2026-05-05 07:27 18.09936 74.13012 11160 ft 380 kts 354°
2026-05-05 07:28 18.12566 74.12775 10566 ft 378 kts 354°
2026-05-05 07:28 18.15144 74.12542 10375 ft 365 kts 354°
2026-05-05 07:28 18.17613 74.12318 10190 ft 346 kts 354°
2026-05-05 07:28 18.19948 74.12108 10011 ft 327 kts 354°
2026-05-05 07:29 18.22169 74.11908 9683 ft 315 kts 354°
2026-05-05 07:29 18.24331 74.11714 9257 ft 311 kts 354°
2026-05-05 07:29 18.26483 74.11520 8873 ft 308 kts 354°
2026-05-05 07:29 18.28598 74.11331 8578 ft 303 kts 354°
2026-05-05 07:30 18.30698 74.11142 8198 ft 301 kts 354°
2026-05-05 07:30 18.34829 74.10770 7507 ft 295 kts 353°
2026-05-05 07:30 18.36864 74.10585 7131 ft 292 kts 353°
2026-05-05 07:31 18.38879 74.10401 6822 ft 288 kts 353°
2026-05-05 07:31 18.40865 74.10223 6407 ft 285 kts 353°
2026-05-05 07:31 18.42831 74.10045 5976 ft 281 kts 353°
2026-05-05 07:31 18.44773 74.09868 5450 ft 279 kts 353°
2026-05-05 07:32 18.46657 74.09700 4995 ft 275 kts 353°
2026-05-05 07:32 18.47964 74.09581 4626 ft 277 kts 353°
2026-05-05 07:32 18.49868 74.09403 4241 ft 273 kts 352°
2026-05-05 07:32 18.51750 74.09229 3893 ft 269 kts 352°
2026-05-05 07:33 18.53550 74.09063 3778 ft 256 kts 352°
2026-05-05 07:33 18.55291 74.08838 3688 ft 237 kts 340°
2026-05-05 07:33 18.56600 74.07993 3536 ft 212 kts 309°
2026-05-05 07:33 18.57239 74.06707 3441 ft 193 kts 283°
2026-05-05 07:34 18.57421 74.05408 3349 ft 166 kts 274°
2026-05-05 07:34 18.57467 74.04470 3256 ft 150 kts 272°
2026-05-05 07:34 18.57514 74.03414 3077 ft 139 kts 272°
2026-05-05 07:34 18.57567 74.02441 3087 ft 133 kts 275°
2026-05-05 07:35 18.57634 74.01441 3111 ft 144 kts 274°
2026-05-05 07:35 18.57696 74.00390 3041 ft 142 kts 275°
2026-05-05 07:35 18.57765 73.99328 2997 ft 148 kts 274°
2026-05-05 07:35 18.57832 73.98246 2850 ft 149 kts 274°
2026-05-05 07:36 18.57903 73.97160 2664 ft 147 kts 273°
2026-05-05 07:36 18.57966 73.96086 2449 ft 149 kts 274°
2026-05-05 07:36 18.58039 73.94976 2303 ft 151 kts 274°
2026-05-05 07:36 18.58116 73.93891 2095 ft 147 kts 272°
2026-05-05 07:37 18.58173 73.92814 1939 ft 145 kts 274°
2026-05-05 07:37 18.58232 73.91902 1921 ft 87 kts 274°
2026-05-05 07:37 18.58252 73.91581 1921 ft 2 kts 274°
2026-05-05 07:37 18.58254 73.91542 1921 ft 10 kts 274°
2026-05-05 07:38 18.58260 73.91432 1921 ft 20 kts 273°
2026-05-05 07:38 18.58270 73.91268 1921 ft 24 kts 274°
2026-05-05 07:38 18.58227 73.91099 1921 ft 25 kts 246°
2026-05-05 07:38 18.58125 73.91030 1921 ft 18 kts 191°
2026-05-05 07:39 18.58057 73.91017 1921 ft 5 kts 189°
2026-05-05 07:39 18.58041 73.91040 1921 ft 5 kts 98°
2026-05-05 07:39 18.58034 73.91090 1921 ft 9 kts 98°
2026-05-05 07:39 18.58024 73.91160 1921 ft 8 kts 97°
2026-05-05 07:40 18.58016 73.91178 1921 ft 2 kts 139°
2026-05-05 07:40 18.58000 73.91177 1921 ft 1 kts 213°
2026-05-05 07:40 18.57995 73.91176 1921 ft 2 kts 186°
2026-05-05 07:40 18.57980 73.91178 1921 ft 2 kts 185°
2026-05-05 07:41 18.57972 73.91176 1921 ft 1 kts 188°
2026-05-05 07:41 18.57968 73.91175 1921 ft 0 kts 188°